This is the latest recevied weather packets stored in our database for station/object WA9AFM. If no packets are shown the sender has not sent any weather packets the latest 10 day(s).
| Time | Temp. | Humidity | Pressure | Rain* | Wind** | Luminosity | Snow |
|---|---|---|---|---|---|---|---|
| 1787630606 | 31.67° C | 59% | 1005.5 hPa | 0 mm | - | - | - |
| 1787629705 | 32.22° C | 57% | 1005.5 hPa | 0 mm | - | - | - |
| 1787628804 | 32.78° C | 55% | 1005.2 hPa | 0 mm | - | - | - |
| 1787627905 | 32.78° C | 54% | 1005.1 hPa | 0 mm | - | - | - |
| 1787627005 | 33.33° C | 53% | 1005 hPa | 0 mm | - | - | - |
| 1787626106 | 33.33° C | 52% | 1004.6 hPa | 0 mm | - | - | - |
| 1787625205 | 33.89° C | 51% | 1004.4 hPa | 0 mm | - | - | - |
| 1787624304 | 34.44° C | 51% | 1004 hPa | 0 mm | - | - | - |
| 1787623406 | 35° C | 51% | 1003.8 hPa | 0 mm | - | - | - |
| 1787622505 | 35.56° C | 49% | 1003.3 hPa | 0 mm | - | - | - |
| 1787621604 | 36.11° C | 46% | 1003.1 hPa | 0 mm | - | - | - |
| 1787620705 | 36.67° C | 43% | 1003 hPa | 0 mm | - | - | - |
| 1787619805 | 37.22° C | 40% | 1002.7 hPa | 0 mm | - | - | - |
| 1787618906 | 37.78° C | 38% | 1002.6 hPa | 0 mm | - | - | - |
| 1787618005 | 38.89° C | 34% | 1002.5 hPa | 0 mm | - | - | - |
| 1787617104 | 38.89° C | 33% | 1002.6 hPa | 0 mm | - | - | - |
| 1787616206 | 40° C | 32% | 1002.6 hPa | 0 mm | - | - | - |
| 1787615305 | 40° C | 31% | 1002.6 hPa | 0 mm | - | - | - |
| 1787614404 | 40° C | 31% | 1002.6 hPa | 0 mm | - | - | - |
| 1787613505 | 41.11° C | 28% | 1002.6 hPa | 0 mm | - | - | - |
| 1787612605 | 41.67° C | 28% | 1002.5 hPa | 0 mm | - | - | - |
| 1787611706 | 42.78° C | 26% | 1002.5 hPa | 0 mm | - | - | - |
| 1787610805 | 42.78° C | 26% | 1002.4 hPa | 0 mm | - | - | - |
| 1787609904 | 42.22° C | 26% | 1002.6 hPa | 0 mm | - | - | - |
| 1787609006 | 42.78° C | 27% | 1002.7 hPa | 0 mm | - | - | - |
* Rain latest hour (hover to see other rain measurements)
** Current wind speed in m/s (hover to see current wind gust speed)